When you browse on this site, cookies collect data to enhance your experience and personalize the content and advertising you see.
Visit our Privacy Policy to learn more. By continuing to use the site, you agree to this use of cookies and data.
  • In Hungary
  • List of Countries
  • For 7 days
  • Water Temperature
  • Satellite Maps
  • Weather Map
  • News
  • Weather Widgets
  • user-avatar
    Login

    Hourly Weather Leszno

    Today, 17 February, Sunday

    Time Temperature Precipitation Wind Pressure Humidity
    00:00 +4°C° 0 mm 3 mps 760 mmHg 70%
    01:00 +4°C° 0 mm 4 mps 760 mmHg 70%
    02:00 +4°C° 0 mm 3 mps 760 mmHg 74%
    03:00 +3°C° 0 mm 3 mps 760 mmHg 77%
    04:00 +3°C° 0 mm 3 mps 760 mmHg 81%
    05:00 +3°C° 0 mm 3 mps 760 mmHg 83%
    06:00 +2°C° 0 mm 3 mps 760 mmHg 84%
    07:00 +1°C° 0 mm 3 mps 760 mmHg 85%
    08:00 +3°C° 0 mm 3 mps 760 mmHg 80%
    09:00 +4°C° 0 mm 3 mps 760 mmHg 75%
    10:00 +5°C° 0 mm 3 mps 760 mmHg 69%
    11:00 +8°C° 0 mm 3 mps 760 mmHg 64%
    12:00 +9°C° 0 mm 2 mps 760 mmHg 60%
    13:00 +12°C° 0 mm 2 mps 760 mmHg 53%
    14:00 +12°C° 0 mm 1 mps 760 mmHg 55%
    15:00 +12°C° 0 mm 1 mps 760 mmHg 57%
    16:00 +11°C° 0 mm 0 mps 759 mmHg 59%
    17:00 +10°C° 0 mm 0 mps 759 mmHg 62%
    18:00 +9°C° 0 mm 1 mps 759 mmHg 65%
    19:00 +8°C° 0 mm 1 mps 759 mmHg 68%
    20:00 +8°C° 0 mm 1 mps 759 mmHg 69%
    21:00 +7°C° 0 mm 1 mps 759 mmHg 71%
    22:00 +7°C° 0 mm 1 mps 759 mmHg 72%
    23:00 +7°C° 0 mm 1 mps 759 mmHg 74%

    Tomorrow, 18 February, Monday

    Time Temperature Precipitation Wind Pressure Humidity
    00:00 +5°C° 0 mm 2 mps 759 mmHg 76%
    01:00 +5°C° 0 mm 2 mps 759 mmHg 78%
    02:00 +5°C° 0 mm 1 mps 759 mmHg 78%
    03:00 +5°C° 0 mm 1 mps 759 mmHg 78%
    04:00 +5°C° 0 mm 1 mps 758 mmHg 77%
    05:00 +4°C° 0 mm 1 mps 758 mmHg 76%
    06:00 +4°C° 0 mm 1 mps 758 mmHg 74%
    07:00 +4°C° 0 mm 1 mps 758 mmHg 72%
    08:00 +4°C° 0 mm 2 mps 758 mmHg 67%
    09:00 +6°C° 0 mm 2 mps 758 mmHg 62%
    10:00 +7°C° 0 mm 2 mps 758 mmHg 56%
    11:00 +8°C° 0 mm 2 mps 758 mmHg 52%
    12:00 +10°C° 0 mm 2 mps 758 mmHg 48%
    13:00 +12°C° 0 mm 2 mps 757 mmHg 44%
    14:00 +12°C° 0 mm 2 mps 757 mmHg 46%
    15:00 +12°C° 0 mm 2 mps 757 mmHg 48%
    16:00 +10°C° 0 mm 2 mps 756 mmHg 50%
    17:00 +9°C° 0 mm 2 mps 756 mmHg 53%
    18:00 +8°C° 0 mm 2 mps 756 mmHg 56%
    19:00 +7°C° 0 mm 2 mps 756 mmHg 60%
    20:00 +6°C° 0 mm 2 mps 756 mmHg 63%
    21:00 +6°C° 0 mm 2 mps 755 mmHg 66%
    22:00 +5°C° 0 mm 2 mps 755 mmHg 69%
    23:00 +5°C° 0 mm 2 mps 755 mmHg 68%

    Day after tomorrow, 19 February, Tuesday

    Time Temperature Precipitation Wind Pressure Humidity
    00:00 +5°C° 0 mm 2 mps 755 mmHg 67%
    01:00 +4°C° 0 mm 2 mps 755 mmHg 66%
    02:00 +4°C° 0 mm 2 mps 755 mmHg 67%
    03:00 +2°C° 0 mm 3 mps 754 mmHg 67%
    04:00 +2°C° 0 mm 3 mps 754 mmHg 67%
    05:00 +2°C° 0 mm 3 mps 754 mmHg 69%
    06:00 +2°C° 0 mm 3 mps 753 mmHg 71%
    07:00 +2°C° 0 mm 3 mps 753 mmHg 73%
    08:00 +3°C° 0 mm 4 mps 753 mmHg 67%
    09:00 +5°C° 0 mm 4 mps 753 mmHg 62%
    10:00 +7°C° 0 mm 5 mps 753 mmHg 56%
    11:00 +8°C° 0 mm 5 mps 753 mmHg 53%
    12:00 +9°C° 0 mm 6 mps 753 mmHg 51%
    13:00 +10°C° 0 mm 6 mps 752 mmHg 49%
    14:00 +10°C° 0 mm 5 mps 752 mmHg 53%
    15:00 +10°C° 0 mm 5 mps 752 mmHg 57%
    16:00 +10°C° 0 mm 4 mps 752 mmHg 61%
    17:00 +8°C° 0.3 mm 5 mps 752 mmHg 69%
    18:00 +7°C° 0.3 mm 5 mps 752 mmHg 77%
    19:00 +6°C° 0.3 mm 5 mps 753 mmHg 85%
    20:00 +6°C° 0.3 mm 5 mps 753 mmHg 85%
    21:00 +5°C° 0.3 mm 5 mps 753 mmHg 86%
    22:00 +5°C° 0.3 mm 4 mps 754 mmHg 86%
    23:00 +5°C° 0 mm 5 mps 754 mmHg 86%

    20 February, Wednesday

    Time Temperature Precipitation Wind Pressure Humidity
    00:00 +3°C° 0 mm 5 mps 754 mmHg 86%
    01:00 +3°C° 0 mm 5 mps 755 mmHg 86%
    02:00 +2°C° 0 mm 5 mps 755 mmHg 88%
    03:00 +2°C° 0 mm 5 mps 755 mmHg 90%
    04:00 +2°C° 0 mm 5 mps 755 mmHg 92%
    05:00 +2°C° 0 mm 5 mps 755 mmHg 90%
    06:00 +2°C° 0 mm 5 mps 756 mmHg 89%
    07:00 +2°C° 0 mm 5 mps 756 mmHg 88%
    08:00 +3°C° 0 mm 5 mps 756 mmHg 85%
    09:00 +3°C° 0 mm 6 mps 757 mmHg 82%
    10:00 +4°C° 0 mm 6 mps 757 mmHg 78%
    11:00 +4°C° 0 mm 6 mps 757 mmHg 75%
    12:00 +5°C° 0 mm 6 mps 757 mmHg 72%
    13:00 +5°C° 0 mm 6 mps 757 mmHg 69%
    14:00 +5°C° 0 mm 6 mps 757 mmHg 69%
    15:00 +6°C° 0 mm 5 mps 757 mmHg 68%
    16:00 +6°C° 0 mm 5 mps 757 mmHg 67%
    17:00 +6°C° 0 mm 4 mps 758 mmHg 71%
    18:00 +5°C° 0 mm 4 mps 758 mmHg 74%
    19:00 +5°C° 0 mm 3 mps 758 mmHg 78%
    20:00 +4°C° 0 mm 3 mps 759 mmHg 80%
    21:00 +4°C° 0 mm 3 mps 759 mmHg 81%
    22:00 +3°C° 0 mm 3 mps 759 mmHg 83%
    23:00 +3°C° 0 mm 3 mps 759 mmHg 84%

    21 February, Thursday

    Time Temperature Precipitation Wind Pressure Humidity
    00:00 +3°C° 0 mm 3 mps 759 mmHg 86%
    01:00 +2°C° 0 mm 3 mps 760 mmHg 87%
    02:00 +3°C° 0 mm 3 mps 759 mmHg 88%
    03:00 +3°C° 0 mm 3 mps 759 mmHg 88%
    04:00 +3°C° 0 mm 3 mps 759 mmHg 89%
    05:00 +3°C° 0 mm 3 mps 759 mmHg 89%
    06:00 +3°C° 0 mm 3 mps 760 mmHg 88%
    07:00 +3°C° 0 mm 3 mps 760 mmHg 88%
    08:00 +3°C° 0 mm 4 mps 760 mmHg 84%
    09:00 +4°C° 0 mm 4 mps 760 mmHg 81%
    10:00 +5°C° 0 mm 4 mps 760 mmHg 77%
    11:00 +6°C° 0 mm 4 mps 760 mmHg 74%
    12:00 +7°C° 0 mm 5 mps 760 mmHg 72%
    13:00 +7°C° 0 mm 5 mps 760 mmHg 69%
    14:00 +7°C° 0.1 mm 4 mps 760 mmHg 73%
    15:00 +6°C° 0.1 mm 4 mps 760 mmHg 77%
    16:00 +6°C° 0.1 mm 4 mps 760 mmHg 81%
    17:00 +6°C° 0.1 mm 4 mps 760 mmHg 84%
    18:00 +5°C° 0.1 mm 3 mps 760 mmHg 86%
    19:00 +5°C° 0.1 mm 3 mps 761 mmHg 89%
    20:00 +6°C° 0.1 mm 2 mps 761 mmHg 91%
    21:00 +6°C° 0.1 mm 2 mps 761 mmHg 93%
    22:00 +6°C° 0.1 mm 2 mps 762 mmHg 95%
    23:00 +5°C° 0.1 mm 2 mps 762 mmHg 96%

    22 February, Friday

    Time Temperature Precipitation Wind Pressure Humidity
    00:00 +5°C° 0.1 mm 2 mps 762 mmHg 96%
    01:00 +5°C° 0.1 mm 2 mps 762 mmHg 96%
    02:00 +6°C° 0 mm 1 mps 763 mmHg 97%
    03:00 +5°C° 0 mm 1 mps 763 mmHg 97%
    04:00 +5°C° 0 mm 1 mps 763 mmHg 97%
    05:00 +5°C° 0 mm 1 mps 764 mmHg 97%
    06:00 +5°C° 0 mm 2 mps 765 mmHg 97%
    07:00 +5°C° 0 mm 2 mps 765 mmHg 97%
    08:00 +5°C° 0 mm 2 mps 766 mmHg 94%
    09:00 +6°C° 0 mm 2 mps 767 mmHg 91%
    10:00 +7°C° 0 mm 2 mps 767 mmHg 88%
    11:00 +7°C° 0 mm 2 mps 768 mmHg 83%
    12:00 +8°C° 0 mm 2 mps 768 mmHg 79%
    13:00 +9°C° 0 mm 2 mps 769 mmHg 74%
    14:00 +9°C° 0 mm 2 mps 769 mmHg 75%
    15:00 +9°C° 0 mm 2 mps 769 mmHg 75%
    16:00 +9°C° 0 mm 2 mps 769 mmHg 75%
    17:00 +8°C° 0 mm 2 mps 770 mmHg 79%
    18:00 +7°C° 0 mm 2 mps 770 mmHg 83%
    19:00 +7°C° 0 mm 2 mps 771 mmHg 87%
    20:00 +6°C° 0 mm 2 mps 771 mmHg 87%
    21:00 +7°C° 0 mm 1 mps 771 mmHg 88%
    22:00 +7°C° 0 mm 1 mps 772 mmHg 88%
    23:00 +6°C° 0 mm 1 mps 772 mmHg 89%
    Show more